When you browse on this site, cookies collect data to enhance your experience and personalize the content and advertising you see.
Visit our Privacy Policy to learn more. By continuing to use the site, you agree to this use of cookies and data.
EN

Hourly Weather Pryahino

Today, 28 September, Monday

Time Temperature Precipitation Wind Pressure Humidity
00:00 +10°C° 0 mm 3 mps 760 mmHg 45%
01:00 +10°C° 0 mm 3 mps 760 mmHg 46%
02:00 +9°C° 0 mm 3 mps 760 mmHg 47%
03:00 +9°C° 0 mm 2 mps 760 mmHg 47%
04:00 +8°C° 0 mm 2 mps 760 mmHg 48%
05:00 +8°C° 0 mm 3 mps 760 mmHg 49%
06:00 +8°C° 0 mm 3 mps 760 mmHg 50%
07:00 +10°C° 0 mm 3 mps 761 mmHg 46%
08:00 +11°C° 0 mm 4 mps 761 mmHg 42%
09:00 +13°C° 0 mm 4 mps 761 mmHg 38%
10:00 +15°C° 0 mm 4 mps 761 mmHg 34%
11:00 +16°C° 0 mm 5 mps 761 mmHg 31%
12:00 +19°C° 0 mm 5 mps 761 mmHg 27%
13:00 +19°C° 0 mm 5 mps 761 mmHg 27%
14:00 +19°C° 0 mm 5 mps 761 mmHg 27%
15:00 +19°C° 0 mm 5 mps 760 mmHg 27%
16:00 +18°C° 0 mm 4 mps 760 mmHg 30%
17:00 +17°C° 0 mm 4 mps 760 mmHg 33%
18:00 +16°C° 0 mm 3 mps 760 mmHg 36%
19:00 +14°C° 0 mm 3 mps 760 mmHg 37%
20:00 +13°C° 0 mm 3 mps 760 mmHg 39%
21:00 +13°C° 0 mm 3 mps 760 mmHg 40%
22:00 +12°C° 0 mm 3 mps 760 mmHg 41%
23:00 +13°C° 0 mm 2 mps 760 mmHg 43%

Tomorrow, 29 September, Tuesday

Time Temperature Precipitation Wind Pressure Humidity
00:00 +12°C° 0 mm 2 mps 760 mmHg 44%
01:00 +12°C° 0 mm 2 mps 760 mmHg 45%
02:00 +10°C° 0 mm 2 mps 760 mmHg 46%
03:00 +10°C° 0 mm 2 mps 760 mmHg 47%
04:00 +10°C° 0 mm 2 mps 760 mmHg 48%
05:00 +9°C° 0 mm 2 mps 760 mmHg 49%
06:00 +9°C° 0 mm 2 mps 760 mmHg 50%
07:00 +12°C° 0 mm 2 mps 760 mmHg 46%
08:00 +13°C° 0 mm 3 mps 760 mmHg 43%
09:00 +14°C° 0 mm 3 mps 760 mmHg 39%
10:00 +17°C° 0 mm 4 mps 760 mmHg 36%
11:00 +18°C° 0 mm 4 mps 759 mmHg 33%
12:00 +19°C° 0 mm 5 mps 759 mmHg 30%
13:00 +20°C° 0 mm 5 mps 759 mmHg 31%
14:00 +20°C° 0 mm 5 mps 758 mmHg 31%
15:00 +20°C° 0 mm 5 mps 758 mmHg 31%
16:00 +19°C° 0 mm 4 mps 758 mmHg 35%
17:00 +18°C° 0 mm 4 mps 757 mmHg 40%
18:00 +17°C° 0 mm 3 mps 757 mmHg 44%
19:00 +16°C° 0 mm 3 mps 757 mmHg 48%
20:00 +15°C° 0 mm 4 mps 757 mmHg 52%
21:00 +14°C° 0 mm 4 mps 757 mmHg 56%
22:00 +14°C° 0 mm 4 mps 756 mmHg 57%
23:00 +13°C° 0 mm 3 mps 756 mmHg 58%

Day after tomorrow, 30 September, Wednesday

Time Temperature Precipitation Wind Pressure Humidity
00:00 +13°C° 0 mm 3 mps 756 mmHg 59%
01:00 +12°C° 0 mm 3 mps 756 mmHg 60%
02:00 +12°C° 0 mm 3 mps 756 mmHg 61%
03:00 +12°C° 0 mm 3 mps 756 mmHg 62%
04:00 +11°C° 0 mm 3 mps 756 mmHg 63%
05:00 +11°C° 0 mm 3 mps 756 mmHg 65%
06:00 +10°C° 0 mm 3 mps 756 mmHg 67%
07:00 +12°C° 0 mm 3 mps 756 mmHg 61%
08:00 +13°C° 0 mm 4 mps 756 mmHg 55%
09:00 +15°C° 0 mm 5 mps 756 mmHg 50%
10:00 +16°C° 0 mm 5 mps 756 mmHg 45%
11:00 +19°C° 0 mm 6 mps 756 mmHg 40%
12:00 +21°C° 0 mm 7 mps 755 mmHg 35%
13:00 +21°C° 0 mm 7 mps 755 mmHg 34%
14:00 +21°C° 0 mm 7 mps 755 mmHg 33%
15:00 +21°C° 0 mm 7 mps 755 mmHg 32%
16:00 +20°C° 0 mm 6 mps 755 mmHg 35%
17:00 +19°C° 0 mm 5 mps 754 mmHg 38%
18:00 +18°C° 0 mm 4 mps 754 mmHg 41%
19:00 +16°C° 0 mm 5 mps 755 mmHg 44%
20:00 +15°C° 0 mm 5 mps 755 mmHg 46%
21:00 +15°C° 0 mm 5 mps 755 mmHg 49%
22:00 +14°C° 0 mm 5 mps 755 mmHg 50%
23:00 +14°C° 0 mm 4 mps 755 mmHg 51%

1 October, Thursday

Time Temperature Precipitation Wind Pressure Humidity
00:00 +13°C° 0 mm 4 mps 755 mmHg 52%
01:00 +12°C° 0 mm 4 mps 755 mmHg 53%
02:00 +12°C° 0 mm 3 mps 755 mmHg 55%
03:00 +11°C° 0 mm 3 mps 755 mmHg 56%
04:00 +11°C° 0 mm 3 mps 755 mmHg 55%
05:00 +11°C° 0 mm 3 mps 756 mmHg 55%
06:00 +11°C° 0 mm 4 mps 756 mmHg 54%
07:00 +12°C° 0 mm 4 mps 756 mmHg 50%
08:00 +13°C° 0 mm 5 mps 756 mmHg 46%
09:00 +15°C° 0 mm 5 mps 756 mmHg 42%
10:00 +16°C° 0 mm 6 mps 756 mmHg 39%
11:00 +19°C° 0 mm 6 mps 756 mmHg 36%
12:00 +20°C° 0 mm 7 mps 756 mmHg 32%
13:00 +20°C° 0 mm 7 mps 755 mmHg 33%
14:00 +20°C° 0 mm 7 mps 755 mmHg 34%
15:00 +20°C° 0 mm 7 mps 755 mmHg 35%
16:00 +19°C° 0 mm 6 mps 755 mmHg 40%
17:00 +17°C° 0 mm 6 mps 754 mmHg 45%
18:00 +16°C° 0 mm 5 mps 754 mmHg 50%
19:00 +15°C° 0 mm 5 mps 755 mmHg 52%
20:00 +15°C° 0 mm 5 mps 755 mmHg 55%
21:00 +14°C° 0 mm 5 mps 755 mmHg 57%
22:00 +13°C° 0 mm 4 mps 755 mmHg 60%
23:00 +13°C° 0 mm 4 mps 755 mmHg 62%

2 October, Friday

Time Temperature Precipitation Wind Pressure Humidity
00:00 +12°C° 0 mm 3 mps 755 mmHg 65%
01:00 +12°C° 0 mm 3 mps 755 mmHg 67%
02:00 +11°C° 0 mm 3 mps 755 mmHg 69%
03:00 +11°C° 0 mm 3 mps 755 mmHg 72%
04:00 +11°C° 0 mm 3 mps 755 mmHg 73%
05:00 +10°C° 0 mm 3 mps 755 mmHg 74%
06:00 +10°C° 0 mm 3 mps 755 mmHg 75%
07:00 +12°C° 0 mm 4 mps 755 mmHg 69%
08:00 +13°C° 0 mm 5 mps 755 mmHg 63%
09:00 +14°C° 0 mm 5 mps 755 mmHg 57%
10:00 +16°C° 0 mm 6 mps 755 mmHg 52%
11:00 +17°C° 0 mm 6 mps 755 mmHg 47%
12:00 +18°C° 0 mm 7 mps 755 mmHg 42%
13:00 +18°C° 0 mm 7 mps 755 mmHg 37%
14:00 +19°C° 0 mm 6 mps 754 mmHg 33%
15:00 +19°C° 0 mm 6 mps 754 mmHg 28%
16:00 +17°C° 0 mm 6 mps 754 mmHg 32%
17:00 +16°C° 0 mm 5 mps 754 mmHg 36%
18:00 +14°C° 0 mm 4 mps 754 mmHg 41%
19:00 +14°C° 0 mm 4 mps 754 mmHg 41%
20:00 +13°C° 0 mm 4 mps 754 mmHg 41%
21:00 +13°C° 0 mm 4 mps 754 mmHg 42%
22:00 +12°C° 0 mm 4 mps 754 mmHg 42%
23:00 +12°C° 0 mm 3 mps 754 mmHg 43%

3 October, Saturday

Time Temperature Precipitation Wind Pressure Humidity
00:00 +11°C° 0 mm 3 mps 754 mmHg 43%
01:00 +11°C° 0 mm 3 mps 754 mmHg 44%
02:00 +11°C° 0 mm 3 mps 754 mmHg 45%
03:00 +12°C° 0 mm 2 mps 754 mmHg 46%
04:00 +10°C° 0 mm 2 mps 754 mmHg 47%
05:00 +10°C° 0 mm 2 mps 754 mmHg 48%
06:00 +9°C° 0 mm 2 mps 754 mmHg 49%
07:00 +11°C° 0 mm 3 mps 754 mmHg 46%
08:00 +12°C° 0 mm 3 mps 755 mmHg 42%
09:00 +13°C° 0 mm 4 mps 755 mmHg 39%
10:00 +15°C° 0 mm 4 mps 755 mmHg 36%
11:00 +17°C° 0 mm 4 mps 755 mmHg 33%
12:00 +19°C° 0 mm 5 mps 755 mmHg 29%
13:00 +20°C° 0 mm 5 mps 754 mmHg 27%
14:00 +20°C° 0 mm 4 mps 754 mmHg 24%
15:00 +20°C° 0 mm 4 mps 754 mmHg 22%
16:00 +19°C° 0 mm 4 mps 754 mmHg 24%
17:00 +18°C° 0 mm 4 mps 754 mmHg 26%
18:00 +16°C° 0 mm 3 mps 754 mmHg 28%
19:00 +14°C° 0 mm 3 mps 754 mmHg 29%
20:00 +14°C° 0 mm 3 mps 754 mmHg 31%
21:00 +13°C° 0 mm 3 mps 755 mmHg 32%
22:00 +12°C° 0 mm 3 mps 755 mmHg 33%
23:00 +13°C° 0 mm 2 mps 755 mmHg 34%
Show more